Other Surface Observations
Issued by NWS

Home | Current Version | Previous Version | Text Only | Print | Product List | Glossary On
Versions: 1 2 3 4 5 6 7 8 9 10 11 12 13 14 15 16 17 18 19 20 21 22 23 24 25 26 27 28 29 30 31 32 33 34 35 36 37 38 39 40 41 42 43 44 45 46 47 48 49 50
000
SXUS52 KTAE 202018
OSOTAE
OSOTAE
North Florida/South Alabama/Southwest Georgia Weather Roundup
National Weather Service Tallahassee Florida
300 PM EST FRI JAN 20 2017

Note: "fair" indicates few or no clouds below 12,000 feet with no
significant weather and/or obstructions to visibility.

!FLZ017-115-028-034-025-202100
...North Florida...

CITY           SKY/WX    TMP DP  RH WIND       PRES   REMARKS
TALLAHASSEE    LGT RAIN  74  71  91 SW7       29.86F
APALACHICOLA   PTSUNNY   73  69  87 S10       29.87F
PERRY          PTSUNNY   77  67  71 SW14G20   29.90F
CROSS CITY     PTSUNNY   77  63  61 SW13G20   29.91S
JACKSONVILLE   PTSUNNY   82  62  50 W15       29.86F
$$

!FLZ112-006-005-002-011-202100
...Florida Panhandle...

CITY           SKY/WX    TMP DP  RH WIND       PRES   REMARKS
MARIANNA       PTSUNNY   77  68  73 S14       29.82F
BONIFAY        RAIN      70  70 100 VRB3      29.84S FOG
PANAMA CITY NW LGT RAIN  74  71  91 S15       29.83F
TYNDALL AFB    LGT RAIN  72  69  90 S12       29.85F
TYND DRONE APT MOCLDY    72  71  96 S8        29.85F
DE FUNIAK SPR  HVY RAIN  67  67 100 CALM      29.84S
EGLIN AFB      LGT RAIN  73  70  91 SW8       29.83S
DESTIN         CLOUDY    74  72  93 W9        29.83S
HURLBURT       PTSUNNY   72  63  73 W6        29.82F
CRESTVIEW      CLOUDY    72  69  90 SW8       29.83F
PENSACOLA      PTSUNNY   74  69  85 SW9       29.81F
$$

!ALZ063-066-202100
...South Alabama...

CITY           SKY/WX    TMP DP  RH WIND       PRES   REMARKS
DOTHAN         CLOUDY    75  66  73 SW9       29.86S
OZARK CAIRNS   DRIZZLE   75  66  73 S14       29.82S
FT RUCKER HELI CLOUDY    76  64  66 SW8       29.81F
RUCKER HELI 3  NOT AVBL
RUCKER HELI 2  CLOUDY    76  64  66 S7        29.81F
FLORALA APT    CLOUDY    74  65  73 S7        29.83F
ANDALUSIA      CLOUDY    78  64  61 SW5       29.81F
TROY           PTSUNNY   74  63  68 SW8       29.83F
EUFALA         PTSUNNY   78  63  59 MISG      29.81F
MOBILE         CLOUDY    75  67  76 S12       29.81F
$$

!GAZ120>161-202100
...Southwest and South Central Georgia...

CITY           SKY/WX    TMP DP  RH WIND       PRES   REMARKS
THOMASVILLE    CLOUDY    77  68  73 W3        29.86F
BAINBRIDGE     MOSUNNY   79  64  61 SW6       29.84F
MOODY AFB      SUNNY     81  61  50 W12       29.84F
VALDOSTA       MOSUNNY   76  63  64 VRB3      29.86F
MOULTRIE       MOSUNNY   77  64  65 S5        29.86F
BLAKELY        PTSUNNY   79  64  61 CALM      29.84S
ALBANY         PTSUNNY   75  64  68 SW5       29.86F
TIFTON         PTSUNNY   74  63  69 SW6       29.86F
FITZGERALD     FAIR      75  64  67 W7        29.89F
CORDELE        CLOUDY    76  63  64 SW9       29.87F
AMERICUS       MOCLDY    72  59  64 SW6       29.87F
HOMERVILLE     FAIR      81  64  57 W7        29.87F
$$

!GMZ750-755-770-775-202100
...Coastal and Buoy Obs...

STATION/POSITION TIME  TEMP    WIND        PRES    VSBY  WAVE
                       AIR SEA DIR/SP/G                  HT/PER
                 (UTC) (F)     (DEG/KT/KT) (MB)    (MI)  (FT/S)
KEATON BEACH     2000   68     170/ 12/ 13 1012.3F
CEDAR KEY        2000   68     210/  8/ 10 1013.6S
C TOWER          2000   72     200/ 15/ 15 1012.1F
APALACHICOLA BUO 1950   76 73  220/ 10/ 12 1012.4F         3/ 5
PANAMA CITY BUOY 1950   76 75              1011.4F         4/ 5
MOBILE BUOY      NOT AVBL
ORANGE BCH AL BU 1950   69 66  210/  8/  8 1009.7F         3/ 6
$$




USA.gov is the U.S. government's official web portal to all federal, state and local government web resources and services.